TimeCDT,TemperatureF,Dew PointF,Humidity,Sea Level PressureIn,VisibilityMPH,Wind Direction,Wind SpeedMPH,Gust SpeedMPH,PrecipitationIn,Events,Conditions,WindDirDegrees,DateUTC
12:54 AM,55.0,42.1,62,30.20,10.0,South,8.1,-,N/A,,Clear,170,2012-04-18 05:54:00
1:54 AM,55.0,43.0,64,30.19,10.0,South,9.2,-,N/A,,Clear,170,2012-04-18 06:54:00
2:54 AM,54.0,43.0,66,30.18,10.0,SSE,8.1,-,N/A,,Clear,160,2012-04-18 07:54:00
3:54 AM,53.1,44.1,71,30.17,10.0,South,6.9,-,N/A,,Clear,180,2012-04-18 08:54:00
4:54 AM,52.0,44.1,74,30.16,10.0,South,6.9,-,N/A,,Clear,180,2012-04-18 09:54:00
5:54 AM,51.1,44.1,77,30.16,10.0,South,8.1,-,N/A,,Clear,180,2012-04-18 10:54:00
6:54 AM,51.1,45.0,80,30.17,10.0,South,8.1,-,N/A,,Clear,190,2012-04-18 11:54:00
7:54 AM,55.0,46.9,74,30.18,10.0,SSW,8.1,-,N/A,,Clear,200,2012-04-18 12:54:00
8:54 AM,57.9,48.0,70,30.18,10.0,SSW,9.2,-,N/A,,Clear,200,2012-04-18 13:54:00
9:54 AM,62.1,48.0,60,30.17,10.0,SSW,12.7,-,N/A,,Clear,210,2012-04-18 14:54:00
10:54 AM,64.9,48.9,56,30.15,10.0,SSW,13.8,19.6,N/A,,Clear,200,2012-04-18 15:54:00
11:54 AM,69.1,48.9,49,30.11,10.0,SSW,17.3,26.5,N/A,,Clear,200,2012-04-18 16:54:00
12:54 PM,71.1,48.9,45,30.08,10.0,SSW,19.6,25.3,N/A,,Clear,200,2012-04-18 17:54:00
1:54 PM,72.0,48.9,44,30.05,10.0,SW,15.0,21.9,N/A,,Clear,230,2012-04-18 18:54:00
2:54 PM,73.0,50.0,44,30.02,10.0,SSW,16.1,25.3,N/A,,Clear,210,2012-04-18 19:54:00
3:54 PM,73.0,50.0,44,29.99,10.0,WSW,15.0,23.0,N/A,,Clear,250,2012-04-18 20:54:00
4:54 PM,73.0,48.9,42,29.98,10.0,SSW,13.8,-,N/A,,Clear,200,2012-04-18 21:54:00
5:54 PM,72.0,48.0,43,29.96,10.0,SSW,11.5,-,N/A,,Clear,210,2012-04-18 22:54:00
6:54 PM,70.0,48.0,46,29.96,10.0,SSW,10.4,-,N/A,,Clear,210,2012-04-18 23:54:00
7:54 PM,66.0,48.0,52,29.96,10.0,South,4.6,-,N/A,,Clear,180,2012-04-19 00:54:00
8:54 PM,64.9,46.9,52,29.97,10.0,South,5.8,-,N/A,,Clear,170,2012-04-19 01:54:00
9:54 PM,63.0,46.9,56,29.98,10.0,SSE,5.8,-,N/A,,Clear,160,2012-04-19 02:54:00
10:54 PM,61.0,46.9,60,29.97,10.0,SSE,5.8,-,N/A,,Partly Cloudy,160,2012-04-19 03:54:00
11:54 PM,61.0,46.0,58,29.96,10.0,SSE,8.1,-,N/A,,Partly Cloudy,160,2012-04-19 04:54:00